Weather History for KGSH - June, 2013

Change the Weather History Date:

Thursday, June 20, 2013

  Actual Average Record
Temperature  
Mean Temperature 70 °F -  
Max Temperature 84 °F 81 °F 99 °F (1953)
Min Temperature 57 °F 59 °F 45 °F (1980)
Cooling Degree Days 4    
Growing Degree Days 20 (Base 50)    
Moisture  
Dew Point 57 °F    
Average Humidity 62    
Maximum Humidity 83    
Minimum Humidity 45    
Precipitation  
Precipitation 0.00 in - - ()
Sea Level Pressure  
Sea Level Pressure 30.16 in    
Wind  
Wind Speed 3 mph (SSE)    
Max Wind Speed 7 mph    
Max Gust Speed -    
Visibility 10 miles    
Events      
Averages and records for this station are not official NWS values.
T = Trace of Precipitation, MM = Missing Value Source: NWS Daily Summary

Daily Weather History Graph

Daily Weather History Graph

Search for Another Location

Airport or City:

Trip Planner

Search our weather history database for the weather conditions in past years. The results will help you decide how hot, cold, wet, or windy it might be!

Date:

Astronomy

Jun. 20, 2013 Rise Set
Actual Time 6:09 AM EDT 9:20 PM EDT
Civil Twilight 5:35 AM EDT 9:54 PM EDT
Nautical Twilight 4:51 AM EDT 10:38 PM EDT
Astronomical Twilight 3:58 AM EDT 11:30 PM EDT
Moon 6:20 PM EDT (6/20) 3:36 AM EDT (6/20)
Length of Visible Light 16h 19m
Length of Day
15h 11m
Waxing Gibbous, 89% of the Moon is Illuminated
Jun 20
Waxing Gibbous
Jun 23
Full
Jun 30
Last Quarter
Jul 8
New
Jul 15
First Quarter

Hourly Weather History & Observations

Time (EDT) Temp. Heat Index Dew Point Humidity Pressure Visibility Wind Dir Wind Speed Gust Speed Precip Events Conditions
12:53 AM 60.1 °F - 55.0 °F 83% 30.13 in 10.0 mi Calm Calm - N/A   Clear
1:53 AM 60.1 °F - 51.1 °F 72% 30.14 in 10.0 mi ESE 6.9 mph - N/A   Clear
2:53 AM 60.1 °F - 51.1 °F 72% 30.14 in 10.0 mi SE 4.6 mph - N/A   Clear
3:53 AM 59.0 °F - 50.0 °F 72% 30.15 in 10.0 mi SE 3.5 mph - N/A   Unknown
4:53 AM 57.0 °F - 50.0 °F 77% 30.15 in 10.0 mi Calm Calm - N/A   Clear
5:53 AM 57.9 °F - 50.0 °F 75% 30.17 in 10.0 mi Calm Calm - N/A   Clear
6:53 AM 57.0 °F - 51.1 °F 81% 30.17 in 10.0 mi Calm Calm - N/A   Clear
7:53 AM 64.0 °F - 55.0 °F 73% 30.17 in 10.0 mi SE 3.5 mph - N/A   Clear
8:53 AM 69.1 °F - 55.0 °F 61% 30.19 in 10.0 mi Calm Calm - N/A   Clear
9:53 AM 73.0 °F - 57.0 °F 57% 30.19 in 10.0 mi South 3.5 mph - N/A   Clear
10:53 AM 77.0 °F - 57.9 °F 52% 30.19 in 10.0 mi South 5.8 mph - N/A   Overcast
11:53 AM 78.1 °F - 55.0 °F 45% 30.19 in 10.0 mi SW 5.8 mph - N/A   Mostly Cloudy
12:53 PM 79.0 °F - 55.9 °F 45% 30.18 in 10.0 mi SSW 5.8 mph - N/A   Mostly Cloudy
1:53 PM 79.0 °F - 57.0 °F 47% 30.19 in 10.0 mi Calm Calm - N/A   Overcast
2:53 PM 80.1 °F 80.7 °F 59.0 °F 48% 30.18 in 10.0 mi Calm Calm - N/A   Mostly Cloudy
3:53 PM 82.0 °F 82.7 °F 61.0 °F 49% 30.16 in 10.0 mi SSE 4.6 mph - N/A   Partly Cloudy
4:53 PM 82.9 °F 83.3 °F 61.0 °F 47% 30.15 in 10.0 mi Variable 4.6 mph - N/A   Clear
5:53 PM 82.0 °F 82.7 °F 61.0 °F 49% 30.14 in 10.0 mi South 5.8 mph - N/A   Clear
6:53 PM 82.0 °F 82.4 °F 60.1 °F 47% 30.13 in 10.0 mi South 4.6 mph - N/A   Clear
7:53 PM 80.1 °F 81.1 °F 61.0 °F 52% 30.13 in 10.0 mi South 3.5 mph - N/A   Clear
8:53 PM 77.0 °F - 62.1 °F 60% 30.12 in 10.0 mi SE 3.5 mph - N/A   Clear
9:53 PM 70.0 °F - 62.1 °F 76% 30.13 in 10.0 mi ESE 3.5 mph - N/A   Clear
10:53 PM 70.0 °F - 63.0 °F 78% 30.15 in 10.0 mi Calm Calm - N/A   Mostly Cloudy
11:53 PM 71.1 °F - 62.1 °F 73% 30.16 in 10.0 mi SE 4.6 mph - N/A   Partly Cloudy